Regional Weather Roundup
Issued by NWS Newport/Morehead, NC

Current Version | Previous Version | Text Only | Print | Product List | Glossary On
Versions: 1 2 3 4 5 6 7 8 9 10 11 12 13 14 15 16 17 18 19 20 21 22 23 24 25 26 27 28 29 30 31 32 33 34 35 36 37 38 39 40 41 42 43 44 45 46 47 48 49 50
000
ASUS42 KMHX 061012
RWRMHX
WEATHER ROUNDUP FOR EASTERN NORTH CAROLINA
NATIONAL WEATHER SERVICE NEWPORT/MOREHEAD CITY NC
500 AM EST FRI MAR 06 2015

NOTE: "FAIR" INDICATES FEW OR NO CLOUDS BELOW 12,000 FEET
WITH NO SIGNIFICANT WEATHER AND/OR OBSTRUCTIONS TO VISIBILITY

NCZ015>017-031-032-045>047-102-103-061100-
NORTH COAST

CITY           SKY/WX    TMP DP  RH WIND       PRES   REMARKS
EDENTON        CLOUDY    28  22  78 N10       30.41R WCI  19
ELIZABETH CITY CLOUDY    27  19  72 N17G31    30.42R WCI  14
KITTY HAWK     CLOUDY    28  21  75 N12G24    30.37S WCI  18
MANTEO         CLOUDY    28  21  75 N24G32    30.39R WCI  14

$$

NCZ045>047-081-094-103-104-061100-
CENTRAL COAST

CITY           SKY/WX    TMP DP  RH WIND       PRES   REMARKS
FRISCO         CLOUDY    31  25  78 N18G37    30.34R WCI  19
SWANQUARTER      N/A     28 N/A N/A N18       30.36R WCI  16

$$

NCZ095-097-098-100-101-061100-
SOUTHERN COAST

CITY           SKY/WX    TMP DP  RH WIND       PRES   REMARKS
BEAUFORT       CLOUDY    32  29  88 MISG      30.34R
CEDAR ISLAND     N/A     32 N/A N/A VRB24G33  30.39S WCI  19
JACKSONVILLE   CLOUDY    32  27  81 N15       30.36R
PINEY ISLAND     N/A    N/A N/A N/A MISG      30.37R
WILMINGTON     CLOUDY    33  27  78 N18G30    30.35R


$$

NCZ011>013-027>030-043-044-078>080-089-090>093-098-061100-
COASTAL PLAIN

CITY           SKY/WX    TMP DP  RH WIND       PRES   REMARKS
AHOSKIE        CLEAR     24  16  71 N12G17    30.46R WCI  13
CLINTON        CLOUDY    32  24  73 N9        30.40R
ELIZABETHTOWN  CLOUDY    33  26  76 N6        30.37R
GOLDSBORO      CLOUDY    30  26  85 N14G23    30.39R WCI  19
GREENVILLE     CLOUDY    28  18  64 N16G22    30.42R WCI  17
HAVELOCK       CLOUDY    32  27  81 N18G29    30.37R
KENANSVILLE    CLOUDY    31  24  76 N10G22    30.40R
KINSTON        MOCLDY    30  16  56 N18G25    30.40R WCI  18
NEW BERN       CLOUDY    31  22  69 N16G25    30.39R WCI  20
RICHLANDS      CLOUDY    30  18  59 N15G24    30.38R WCI  19
ROCKY MOUNT    CLOUDY    27  15  61 N21G29    30.43R WCI  13
WASHINGTON     CLOUDY    28  19  67 N13       30.42R WCI  18
WHITEVILLE     CLOUDY    34  28  76 N7        30.36R

$$

AMZ130-135-150-152-154-156-158-170-250-252-270-ANZ085-086-088-633-658-670-061100-
MARINE OBSERVATIONS

STATION/POSITION TIME  TEMP    WIND        PRES    WAVE   SWELL
                       AIR SEA DIR/SP/G            HT/PER HT/PER
                 (UTC) (F)     (DEG/KT/KT) (MB)    (FT/S) (FT/S)
CHESAPEAKE LIGHT 0900   26      10/ 30/ 32 1029.3
64 E VA BEACH    0950   34 52   10/ 27/ 33 1027.2   12/ 8   8/ 8
DUCK             0900   28 36   10/ 26/ 33 1027.2
2 E DUCK         0911      35                N/A     9/ 8   2/11
10 NE DUCK       0922      38                N/A    10/ 7   2/11
OREGON INLET     0900   29 40  360/ 21/ 30 1027.7
HATTERAS CG      0900      47   10/ 29/ 35 1026.9
CAPE LOOKOUT     1000           10/ 26/ 34 1026.9
BEAUFORT LAB     0900   33 50   20/ 17/ 22 1025.4
27 SE WRIGHTSVLE NOT AVBL
5 SE WRIGHTSVLE  NOT AVBL
225 S CAPE HAT   0950   68 72  360/ 19/ 23 1018.8    7/ 8   5/ 8
41 SE CHARLESTON 0950   48 68   30/ 27/ 39 1022.9   11/ 8   2/17

$$


USA.gov is the U.S. government's official web portal to all federal, state and local government web resources and services.